Epoch 2006 Sept. 22.0 TT = JDT 2454000.5 T 2006 Sept. 3.67388 TT Williams q 1.6711048 (2000.0) P Q n 0.07400939 Peri. 249.30973 +0.82487623 -0.52348001 a 5.6183849 Node 218.63313 -0.30049674 -0.72579389 e 0.7025649 Incl. 160.01117 -0.47883287 -0.44630920 P 13.3 From 65 observations 2006 Sept. 1-2019 Sept. 26, mean residual 0".4.
m1 = 16.0 + 5 logΔ + 10.0 log r